sat.trackr.live / text

‹ back to catalog

2024-024J

NORAD 58925 · 2024-024J

PAYLOAD ACTIVE UNKNOWN

§ Identity

Operator
Country
PRC
Launch date
2024-02-03
Launch site
SCSLA
Launch vehicle
Mass (kg)
RCS (m²)

External: N2YO · Heavens-Above · Gunter

§ Orbital elements

Epoch: 2026-05-25T05:10:44.634432Z

Period
91.63 min
Inclination
97.3117°
Eccentricity
0.0005156
Mean motion
15.71608335 rev/d
Perigee alt
350.8 km
Apogee alt
357.8 km
Semi-major
6,732.4 km
B*
6.2922e-4
RAAN
235.3514°
Arg perigee
170.3268°
Mean anomaly
189.8096°
Rev number
16,609

§ Raw data

2024-024J1 58925U 24024J   26145.21579438  .00081287  00000+0  62922-3 0  99972 58925  97.3117 235.3514 0005156 170.3268 189.8096 15.71608335166098

JSON: /api/v1/satellites/58925 · /tle

For live sub-satellite position, see the globe view (requires WebGL).

§ Visibility from observer

Set your observer location to see the next 7 days of passes ≥ 10°. The values pass through the URL so the page stays shareable.

No JS? Fill the form by hand. The geolocation button needs JavaScript.

§ Radio — SatNOGS DB

ModeDescriptionDownlinkUplink
FM S-band telemetry 2.246 GHz

1 transmitter · refreshed weekly from db.satnogs.org